Marion Regional, IL

1:35 AM CDT on March 28, 2017 (GMT -0500)
Williamson County Regional

Weather History for KMWA - July, 2013

Change the Weather History Date:

Monday, July 22, 2013

  Actual Average Record
Temperature  
Mean Temperature 80 °F -  
Max Temperature 89 °F 88 °F 101 °F (1983)
Min Temperature 71 °F 66 °F 55 °F (1970)
Cooling Degree Days 15    
Growing Degree Days 30 (Base 50)    
Moisture  
Dew Point 73 °F    
Average Humidity 86    
Maximum Humidity 100    
Minimum Humidity 52    
Precipitation  
Precipitation 0.05 in - - ()
Sea Level Pressure  
Sea Level Pressure 29.86 in    
Wind  
Wind Speed 6 mph (SSW)    
Max Wind Speed 12 mph    
Max Gust Speed -    
Visibility 9 miles    
Events Rain    
Averages and records for this station are not official NWS values.
T = Trace of Precipitation, MM = Missing Value Source: NWS Daily Summary

Daily Weather History Graph

Daily Weather History Graph

Search for Another Location

Airport or City:

Trip Planner

Search our weather history database for the weather conditions in past years. The results will help you decide how hot, cold, wet, or windy it might be!

Date:

Astronomy

Jul. 22, 2013 Rise Set
Actual Time 5:51 AM CDT 8:12 PM CDT
Civil Twilight 5:21 AM CDT 8:42 PM CDT
Nautical Twilight 4:44 AM CDT 9:19 PM CDT
Astronomical Twilight 4:04 AM CDT 9:59 PM CDT
Moon 8:00 PM CDT (7/22) 5:46 AM CDT (7/22)
Length of Visible Light 15h 21m
Length of Day
14h 21m
Full, 100% of the Moon is Illuminated
Jul 22
Full
Jul 22
Full
Jul 29
Last Quarter
Aug 6
New
Aug 14
First Quarter

Hourly Weather History & Observations

Time (CDT) Temp. Heat Index Dew Point Humidity Pressure Visibility Wind Dir Wind Speed Gust Speed Precip Events Conditions
12:15 AM 73.4 °F - 71.6 °F 94% 29.89 in 7.0 mi South 5.8 mph - N/A   Mostly Cloudy
12:35 AM 73.4 °F - 71.6 °F 94% 29.89 in 7.0 mi South 8.1 mph - N/A   Overcast
12:55 AM 73.4 °F - 71.6 °F 94% 29.88 in 7.0 mi South 10.4 mph - N/A   Overcast
1:15 AM 71.6 °F - 71.6 °F 100% 29.88 in 7.0 mi SSW 9.2 mph - N/A   Overcast
1:35 AM 71.6 °F - 71.6 °F 100% 29.88 in 7.0 mi SSW 8.1 mph - N/A   Mostly Cloudy
1:55 AM 73.4 °F - 71.6 °F 94% 29.86 in 7.0 mi SSW 6.9 mph - N/A   Mostly Cloudy
2:15 AM 73.4 °F - 71.6 °F 94% 29.86 in 7.0 mi SW 4.6 mph - N/A   Mostly Cloudy
2:35 AM 73.4 °F - 71.6 °F 94% 29.87 in 7.0 mi South 9.2 mph - N/A   Mostly Cloudy
2:55 AM 73.4 °F - 71.6 °F 94% 29.86 in 7.0 mi SSW 5.8 mph - N/A   Mostly Cloudy
3:15 AM 71.6 °F - 71.6 °F 100% 29.85 in 7.0 mi SSW 5.8 mph - N/A   Mostly Cloudy
3:35 AM 71.6 °F - 71.6 °F 100% 29.85 in 7.0 mi SSW 6.9 mph - N/A   Scattered Clouds
3:55 AM 71.6 °F - 71.6 °F 100% 29.85 in 7.0 mi SSW 4.6 mph - N/A   Clear
4:15 AM 71.6 °F - 71.6 °F 100% 29.85 in 7.0 mi Calm Calm - N/A   Clear
4:35 AM 71.6 °F - 69.8 °F 94% 29.85 in 7.0 mi Calm Calm - N/A   Clear
4:55 AM 71.6 °F - 71.6 °F 100% 29.85 in 7.0 mi Calm Calm - N/A   Clear
5:15 AM 71.6 °F - 71.6 °F 100% 29.85 in 7.0 mi Calm Calm - N/A   Mostly Cloudy
5:35 AM 71.6 °F - 71.6 °F 100% 29.85 in 7.0 mi WSW 3.5 mph - N/A   Overcast
5:55 AM 71.6 °F - 71.6 °F 100% 29.85 in 7.0 mi Calm Calm - N/A   Overcast
6:15 AM 71.6 °F - 71.6 °F 100% 29.86 in 7.0 mi Calm Calm - N/A   Overcast
6:51 AM 71.6 °F - 71.6 °F 100% 29.86 in 7.0 mi WNW 5.8 mph - N/A   Overcast
7:52 AM 73.4 °F - 71.6 °F 94% 29.88 in 7.0 mi WNW 8.1 mph - N/A   Overcast
8:53 AM 75.2 °F - 71.6 °F 89% 29.88 in 7.0 mi WNW 8.1 mph - N/A   Overcast
9:53 AM 77.0 °F - 71.6 °F 83% 29.89 in 7.0 mi WSW 8.1 mph - N/A   Overcast
10:54 AM 78.8 °F - 73.4 °F 83% 29.90 in 7.0 mi WNW 8.1 mph - N/A   Overcast
11:53 AM 82.4 °F 87.2 °F 71.6 °F 70% 29.89 in 10.0 mi WNW 9.2 mph - N/A   Mostly Cloudy
12:53 PM 82.4 °F 86.3 °F 69.8 °F 66% 29.89 in 15.0 mi West 5.8 mph - N/A   Mostly Cloudy
1:53 PM 84.2 °F 88.4 °F 69.8 °F 62% 29.88 in 20.0 mi SW 5.8 mph - N/A   Scattered Clouds
2:53 PM 89.6 °F 94.7 °F 69.8 °F 52% 29.88 in 20.0 mi SW 11.5 mph - N/A   Scattered Clouds
4:53 PM 87.8 °F 91.4 °F 68.0 °F 52% 29.85 in 20.0 mi WSW 9.2 mph - N/A   Scattered Clouds
5:55 PM 86.0 °F 91.8 °F 71.6 °F 62% 29.83 in 20.0 mi NNW 5.8 mph - N/A   Scattered Clouds
6:35 PM 86.0 °F 93.4 °F 73.4 °F 66% 29.82 in 10.0 mi SE 3.5 mph - N/A   Scattered Clouds
6:55 PM 86.0 °F 93.4 °F 73.4 °F 66% 29.82 in 10.0 mi South 4.6 mph - N/A   Mostly Cloudy
7:15 PM 86.0 °F 93.4 °F 73.4 °F 66% 29.83 in 10.0 mi Calm Calm - N/A   Scattered Clouds
7:35 PM 84.2 °F 92.3 °F 75.2 °F 74% 29.84 in 10.0 mi South 4.6 mph - N/A   Scattered Clouds
7:55 PM 82.4 °F 89.5 °F 75.2 °F 79% 29.84 in 10.0 mi South 3.5 mph - N/A   Clear
8:15 PM 82.4 °F 89.5 °F 75.2 °F 79% 29.84 in 10.0 mi SSE 4.6 mph - N/A   Clear
8:35 PM 82.4 °F 88.2 °F 73.4 °F 74% 29.84 in 10.0 mi SSE 3.5 mph - N/A   Clear
8:55 PM 82.4 °F 88.2 °F 73.4 °F 74% 29.84 in 10.0 mi SSE 3.5 mph - N/A   Clear
9:15 PM 80.6 °F 86.2 °F 75.2 °F 84% 29.85 in 10.0 mi Calm Calm - N/A   Clear
9:35 PM 80.6 °F 86.2 °F 75.2 °F 84% 29.86 in 10.0 mi SE 3.5 mph - N/A   Clear
9:55 PM 80.6 °F 86.2 °F 75.2 °F 84% 29.87 in 10.0 mi SW 3.5 mph - N/A   Mostly Cloudy
10:15 PM 80.6 °F 87.1 °F 77.0 °F 89% 29.87 in 7.0 mi SSE 4.6 mph - 0.05 in Rain Heavy Rain
10:35 PM 78.8 °F - 77.0 °F 94% 29.87 in 10.0 mi South 4.6 mph - 0.05 in   Scattered Clouds
10:55 PM 78.8 °F - 77.0 °F 94% 29.87 in 10.0 mi Calm Calm - 0.05 in   Scattered Clouds
11:15 PM 78.8 °F - 75.2 °F 89% 29.88 in 10.0 mi Calm Calm - N/A   Scattered Clouds
11:35 PM 78.8 °F - 77.0 °F 94% 29.88 in 10.0 mi SSE 5.8 mph - N/A   Scattered Clouds
11:55 PM 78.8 °F - 77.0 °F 94% 29.88 in 10.0 mi South 3.5 mph - N/A   Scattered Clouds